Weather History for Columbia / Mount Pleasant, TN

Change the Weather History Date:

Saturday, March 23, 2013

  Actual Average (KBNA) Record (KBNA)
Temperature  
Mean Temperature 48 °F 52 °F  
Max Temperature 55 °F 63 °F 87 °F (1935)
Min Temperature 42 °F 41 °F 16 °F (1968)
Degree Days  
Heating Degree Days 16 13  
Month to date heating degree days 377  
Since 1 July heating degree days 3315  
Cooling Degree Days 0 0  
Month to date cooling degree days 0  
Year to date cooling degree days 0  
Moisture  
Dew Point 47 °F    
Average Humidity 99    
Maximum Humidity 100    
Minimum Humidity 88    
Precipitation  
Precipitation 0.00 in 0.14 in 1.37 in (1954)
Month to date precipitation 3.03  
Year to date precipitation 10.72  
Snow  
Snow 0.00 in 0.00 in 0.30 in (1968)
Month to date snowfall 0.7  
Since 1 July snowfall 6.1  
Snow Depth -    
Sea Level Pressure  
Sea Level Pressure 29.86 in    
Wind  
Wind Speed 5 mph (ENE)    
Max Wind Speed 12 mph    
Max Gust Speed -    
Visibility 9 miles    
Events      
T = Trace of Precipitation, MM = Missing Value Source: NWS Daily Summary

Daily Weather History Graph

Daily Weather History Graph

Search for Another Location

Airport:

Trip Planner

Search our weather history database for the weather conditions in past years. The results will help you decide how hot, cold, wet, or windy it might be!

Date:

Astronomy

Mar. 23, 2013 Rise Set
Actual Time 6:47 AM CDT 7:03 PM CDT
Civil Twilight 6:22 AM CDT 7:28 PM CDT
Nautical Twilight 5:52 AM CDT 7:58 PM CDT
Astronomical Twilight 5:22 AM CDT 8:28 PM CDT
Moon 3:35 PM CDT (3/23) 4:16 AM CDT (3/23)
Length of Visible Light 13h 06m
Length of Day
12h 15m
Waxing Gibbous, 85% of the Moon is Illuminated
Mar 23
Waxing Gibbous
Mar 27
Full
Apr 2
Last Quarter
Apr 10
New
Apr 18
First Quarter

Hourly Weather History & Observations

Time (CDT) Temp. Windchill Dew Point Humidity Pressure Visibility Wind Dir Wind Speed Gust Speed Precip Events Conditions
12:35 AM 42.8 °F 39.3 °F 42.8 °F 100% 29.95 in 10.0 mi East 5.8 mph - N/A   Overcast
12:55 AM 42.8 °F 41.1 °F 42.8 °F 100% 29.94 in 10.0 mi ENE 3.5 mph - N/A   Overcast
1:15 AM 44.6 °F 42.2 °F 42.8 °F 93% 29.94 in 10.0 mi NE 4.6 mph - N/A   Overcast
1:35 AM 42.8 °F 41.1 °F 42.8 °F 100% 29.94 in 10.0 mi ENE 3.5 mph - N/A   Overcast
1:55 AM 42.8 °F - 42.8 °F 100% 29.94 in 10.0 mi Calm Calm - N/A   Overcast
2:15 AM 42.8 °F 41.1 °F 42.8 °F 100% 29.92 in 10.0 mi NE 3.5 mph - N/A   Overcast
3:15 AM 42.8 °F 40.1 °F 42.8 °F 100% 29.92 in 10.0 mi NE 4.6 mph - N/A   Overcast
3:35 AM 42.8 °F 40.1 °F 42.8 °F 100% 29.92 in 7.0 mi ENE 4.6 mph - N/A   Overcast
3:55 AM 42.8 °F 41.1 °F 42.8 °F 100% 29.90 in 10.0 mi ENE 3.5 mph - N/A   Overcast
4:15 AM 42.8 °F 41.1 °F 42.8 °F 100% 29.92 in 10.0 mi NE 3.5 mph - N/A   Overcast
4:35 AM 42.8 °F 40.1 °F 42.8 °F 100% 29.90 in 10.0 mi East 4.6 mph - N/A   Overcast
4:55 AM 42.8 °F - 42.8 °F 100% 29.90 in 10.0 mi Calm Calm - N/A   Overcast
5:15 AM 42.8 °F 41.1 °F 42.8 °F 100% 29.91 in 10.0 mi NE 3.5 mph - N/A   Overcast
5:35 AM 42.8 °F 38.6 °F 42.8 °F 100% 29.91 in 10.0 mi ENE 6.9 mph - N/A   Overcast
5:55 AM 42.8 °F 39.3 °F 42.8 °F 100% 29.91 in 10.0 mi ENE 5.8 mph - N/A   Overcast
6:15 AM 42.8 °F 38.6 °F 42.8 °F 100% 29.91 in 10.0 mi ENE 6.9 mph - N/A   Overcast
6:35 AM 42.8 °F 39.3 °F 42.8 °F 100% 29.91 in 10.0 mi East 5.8 mph - N/A   Overcast
6:55 AM 42.8 °F 41.1 °F 42.8 °F 100% 29.92 in 10.0 mi East 3.5 mph - N/A   Overcast
7:15 AM 42.8 °F 40.1 °F 42.8 °F 100% 29.93 in 10.0 mi East 4.6 mph - N/A   Overcast
7:35 AM 42.8 °F 41.1 °F 42.8 °F 100% 29.93 in 10.0 mi ENE 3.5 mph - N/A   Overcast
7:55 AM 42.8 °F 40.1 °F 42.8 °F 100% 29.94 in 10.0 mi NE 4.6 mph - N/A   Overcast
8:15 AM 44.6 °F 40.7 °F 44.6 °F 100% 29.94 in 10.0 mi NE 6.9 mph - N/A   Overcast
8:35 AM 44.6 °F 40.2 °F 44.6 °F 100% 29.94 in 10.0 mi ENE 8.1 mph - N/A   Overcast
8:55 AM 44.6 °F 40.7 °F 44.6 °F 100% 29.94 in 10.0 mi NE 6.9 mph - N/A   Overcast
9:15 AM 44.6 °F 40.7 °F 44.6 °F 100% 29.94 in 10.0 mi NE 6.9 mph - N/A   Overcast
9:35 AM 44.6 °F 41.4 °F 44.6 °F 100% 29.94 in 10.0 mi ENE 5.8 mph - N/A   Overcast
9:55 AM 46.4 °F 43.5 °F 46.4 °F 100% 29.95 in 10.0 mi East 5.8 mph - N/A   Overcast
10:15 AM 46.4 °F 42.9 °F 46.4 °F 100% 29.94 in 10.0 mi East 6.9 mph - N/A   Overcast
10:35 AM 46.4 °F 44.3 °F 46.4 °F 100% 29.95 in 10.0 mi ENE 4.6 mph - N/A   Overcast
10:55 AM 48.2 °F - 48.2 °F 100% 29.94 in 10.0 mi ENE 6.9 mph - N/A   Overcast
11:15 AM 48.2 °F - 48.2 °F 100% 29.94 in 10.0 mi ENE 3.5 mph - N/A   Overcast
11:35 AM 48.2 °F - 48.2 °F 100% 29.93 in 10.0 mi ENE 5.8 mph - N/A   Overcast
11:55 AM 50.0 °F - 50.0 °F 100% 29.93 in 10.0 mi ENE 4.6 mph - N/A   Overcast
12:15 PM 51.8 °F - 51.8 °F 100% 29.92 in 10.0 mi ENE 6.9 mph - N/A   Overcast
12:35 PM 53.6 °F - 53.6 °F 100% 29.91 in 10.0 mi ENE 9.2 mph - N/A   Overcast
12:55 PM 53.6 °F - 53.6 °F 100% 29.90 in 10.0 mi ENE 8.1 mph - N/A   Scattered Clouds
1:15 PM 55.4 °F - 53.6 °F 94% 29.89 in 10.0 mi ENE 8.1 mph - N/A   Scattered Clouds
1:35 PM 55.4 °F - 53.6 °F 94% 29.88 in 10.0 mi ENE 9.2 mph - N/A   Mostly Cloudy
1:55 PM 55.4 °F - 53.6 °F 94% 29.88 in 10.0 mi ENE 6.9 mph - N/A   Overcast
2:15 PM 55.4 °F - 51.8 °F 88% 29.88 in 10.0 mi NE 5.8 mph - N/A   Overcast
2:35 PM 55.4 °F - 51.8 °F 88% 29.86 in 10.0 mi ENE 9.2 mph - N/A   Overcast
2:55 PM 55.4 °F - 51.8 °F 88% 29.85 in 10.0 mi NNE 9.2 mph - N/A   Overcast
3:15 PM 55.4 °F - 51.8 °F 88% 29.85 in 10.0 mi NE 9.2 mph - N/A   Overcast
3:35 PM 53.6 °F - 51.8 °F 94% 29.84 in 10.0 mi NNE 8.1 mph - N/A   Mostly Cloudy
3:55 PM 53.6 °F - 51.8 °F 94% 29.86 in 10.0 mi NE 6.9 mph - N/A   Overcast
4:15 PM 51.8 °F - 51.8 °F 100% 29.86 in 7.0 mi NE 5.8 mph - N/A   Overcast
4:35 PM 51.8 °F - 51.8 °F 100% 29.83 in 3.0 mi ENE 6.9 mph - N/A   Overcast
4:55 PM 51.8 °F - 51.8 °F 100% 29.84 in 6.0 mi North 4.6 mph - N/A   Overcast
5:15 PM 50.0 °F - 50.0 °F 100% 29.80 in 1.8 mi ENE 9.2 mph - N/A   Overcast
5:35 PM 50.0 °F - 50.0 °F 100% 29.79 in 5.0 mi ENE 9.2 mph - N/A   Overcast
5:55 PM 50.0 °F - 50.0 °F 100% 29.78 in 7.0 mi ENE 11.5 mph - N/A   Mostly Cloudy
6:15 PM 50.0 °F - 50.0 °F 100% 29.79 in 10.0 mi NE 5.8 mph - N/A   Partly Cloudy
6:35 PM 50.0 °F - 50.0 °F 100% 29.77 in 10.0 mi ENE 6.9 mph - N/A   Partly Cloudy
6:55 PM 50.0 °F - 50.0 °F 100% 29.77 in 10.0 mi East 4.6 mph - N/A   Mostly Cloudy
7:15 PM 50.0 °F - 50.0 °F 100% 29.76 in 10.0 mi NNE 4.6 mph - N/A   Mostly Cloudy
7:35 PM 50.0 °F - 50.0 °F 100% 29.76 in 10.0 mi NNE 3.5 mph - N/A   Mostly Cloudy
7:55 PM 50.0 °F - 50.0 °F 100% 29.74 in 10.0 mi NE 4.6 mph - N/A   Scattered Clouds
8:15 PM 48.2 °F - 48.2 °F 100% 29.73 in 10.0 mi NE 3.5 mph - N/A   Scattered Clouds
8:35 PM 48.2 °F - 48.2 °F 100% 29.73 in 10.0 mi East 3.5 mph - N/A   Mostly Cloudy
8:55 PM 48.2 °F - 48.2 °F 100% 29.73 in 10.0 mi East 3.5 mph - N/A   Mostly Cloudy
9:15 PM 50.0 °F - 50.0 °F 100% 29.75 in 10.0 mi Calm Calm - N/A   Overcast
9:35 PM 50.0 °F - 50.0 °F 100% 29.75 in 10.0 mi East 3.5 mph - N/A   Overcast
9:55 PM 48.2 °F - 48.2 °F 100% 29.72 in 10.0 mi East 6.9 mph - N/A   Overcast
10:15 PM 50.0 °F - 50.0 °F 100% 29.73 in 10.0 mi ENE 3.5 mph - N/A   Overcast
10:35 PM 48.2 °F - 48.2 °F 100% 29.73 in 9.0 mi ESE 3.5 mph - N/A   Overcast
10:55 PM 48.2 °F - 48.2 °F 100% 29.76 in 9.0 mi Calm Calm - N/A   Overcast
11:15 PM 48.2 °F - 48.2 °F 100% 29.73 in 4.0 mi ENE 4.6 mph - N/A   Overcast
11:35 PM 48.2 °F - 48.2 °F 100% 29.72 in 4.0 mi Calm Calm - N/A   Overcast
11:55 PM 48.2 °F - 48.2 °F 100% 29.68 in 6.0 mi ENE 4.6 mph - N/A   Overcast